Dewpoint
41 35 33 33 33 35 37 38 38 39 40 38 39 40 40 39 41 42 46 50 48 45 44 43 43 41 39 42 43 44 43 42 43 46 47 50 50 50 47 43 31 28 29 32 33 34 34 34 33 33 34 33 33 33 33 33 34 35 36 38 38 39 40 41 43 45 47 50 53 57 59 59 60 60 62 63 64 65 65 65 65 65 65 65 66 66
40 34 32 34 34 33 36 37 38 39 39 42 42 39 38 39 39 42 45 49 48 44 44 45 45 45 40 44 48 48 46 47 47 47 49 48 46 45 43 37 30 29 30 31 31 33 33 33 33 32 32 34 32 32 30 30 31 32 34 35 36 37 39 40 42 43 44 46 49 52 54 56 60 60 60 62 63 64 64 64 65 64 64 64 64 64
34 31 31 33 33 31 33 37 38 38 37 40 41 41 40 42 43 45 46 48 49 46 44 45 44 45 46 47 47 47 46 46 47 47 46 44 38 30 28 29 31 31 29 29 28 28 28 30 31 31 30 30 29 29 29 28 28 28 31 34 35 35 37 38 40 42 42 43 45 47 50 50 51 51 49 49 48 51 53 57 62 64 64 64 64 64
29 32 32 32 32 29 29 34 37 38 38 38 39 39 38 41 40 38 45 46 48 47 44 44 43 45 47 44 44 45 45 42 41 37 33 32 31 29 27 28 29 29 29 27 25 24 24 24 24 25 26 26 27 28 28 27 25 25 29 30 33 33 34 36 38 41 40 41 42 44 45 48 50 49 48 47 46 47 48 49 50 52 57 63 65 65
30 30 34 32 32 29 27 32 35 37 35 37 40 40 39 40 41 42 42 46 45 45 46 44 43 44 45 40 41 44 44 41 42 40 39 34 31 30 30 30 30 28 27 26 23 22 21 20 21 22 23 22 24 24 24 25 23 24 25 27 30 31 32 34 37 37 38 37 38 40 41 42 44 44 44 47 48 48 47 47 47 47 49 51 54 59
34 35 34 33 30 28 28 29 33 35 34 36 39 40 38 40 41 42 43 43 41 40 43 43 35 34 36 36 38 39 39 37 39 36 35 35 29 28 28 28 28 29 27 24 22 20 18 18 19 20 20 22 23 22 21 23 24 22 22 25 27 28 30 32 33 34 36 34 35 37 38 39 40 40 40 41 44 46 48 46 47 47 48 48 49 50
35 35 34 30 29 29 28 29 34 35 31 32 36 40 41 41 41 41 41 41 36 33 40 43 34 29 35 34 35 35 34 33 34 31 30 29 26 26 25 25 25 24 24 24 22 21 20 19 19 19 19 21 22 21 22 22 23 20 21 23 24 26 28 31 29 28 33 30 31 33 33 35 37 38 39 39 40 42 43 44 45 45 45 44 45 46
33 35 33 32 29 28 27 28 33 34 32 31 41 40 40 40 40 39 39 38 34 38 40 42 41 30 29 32 35 35 33 33 30 28 27 24 23 23 22 21 22 22 21 20 19 19 20 19 19 19 20 20 21 22 22 22 22 22 22 21 22 25 28 28 30 29 30 30 30 29 29 31 32 34 35 36 38 40 40 40 40 40 40 40 41 41
34 34 33 30 27 25 26 29 34 34 32 37 40 41 37 39 39 38 36 36 36 34 32 37 39 32 29 33 37 35 29 28 27 26 25 23 22 20 20 19 19 19 17 16 16 16 16 16 17 17 18 19 21 22 23 23 23 23 22 21 21 22 24 25 27 30 30 31 30 29 28 28 28 29 30 30 33 37 38 39 41 41 40 40 39 40
35 37 35 31 26 26 30 32 36 35 36 39 42 43 41 40 38 37 35 34 33 33 30 33 34 29 28 32 33 35 28 26 26 24 23 22 21 20 19 18 17 16 17 17 15 15 16 15 16 17 18 18 19 21 24 23 24 23 22 21 22 21 23 24 24 27 29 29 30 29 29 29 28 27 25 26 28 27 26 32 38 42 42 42 40 40
34 40 40 35 36 37 31 32 37 35 39 41 41 41 40 38 37 36 35 34 30 26 30 34 34 32 25 29 32 32 30 28 25 23 22 21 20 18 17 16 16 15 17 17 16 16 17 17 17 18 18 18 19 20 20 21 21 20 20 19 20 20 22 23 23 24 26 26 26 28 28 29 29 27 26 27 26 29 26 25 25 32 40 44 44 44
35 34 34 37 39 39 39 32 39 41 41 40 39 37 35 33 35 30 28 30 21 20 32 34 33 34 23 26 30 35 33 28 24 22 21 19 19 18 17 16 16 16 18 18 17 18 18 18 17 17 17 17 18 19 19 19 19 19 18 18 18 19 20 22 23 24 25 25 26 26 26 27 29 27 29 28 29 30 29 28 28 28 29 30 33 36
31 33 35 36 40 38 39 34 38 40 41 39 37 35 28 27 28 24 27 22 20 21 32 33 30 25 23 28 26 25 24 25 24 22 20 19 17 17 16 16 17 19 18 17 17 18 18 18 17 17 17 18 18 19 19 21 20 19 18 18 18 17 18 19 20 22 23 25 26 26 25 25 27 28 27 27 27 27 31 30 31 31 31 32 32 31
29 33 34 34 37 34 38 34 35 35 37 36 34 31 25 22 20 20 23 23 26 29 33 31 29 24 27 28 30 24 24 24 23 21 20 18 16 16 17 17 17 20 19 18 18 18 18 17 18 17 17 17 18 18 19 19 20 20 19 19 19 18 19 20 19 18 19 23 26 25 25 25 26 25 25 25 25 27 29 30 29 30 31 31 30 30
25 26 31 33 29 36 38 37 36 35 33 31 38 29 26 23 17 14 19 18 21 27 31 33 25 22 21 25 31 25 24 23 22 21 20 20 19 19 18 18 18 18 19 19 19 19 18 19 18 18 17 17 17 17 19 19 19 19 19 19 18 18 19 20 20 19 18 20 22 22 23 24 25 26 25 25 27 26 27 25 26 29 30 31 30 31
27 28 33 37 37 38 36 38 39 36 33 31 35 34 28 26 28 20 21 21 25 27 27 26 24 26 25 29 28 25 24 21 20 19 19 19 19 20 19 19 18 18 18 20 19 19 19 19 18 19 19 19 19 18 19 18 19 19 19 19 18 19 19 19 21 19 19 20 21 21 21 22 24 26 25 25 25 25 26 24 25 26 27 28 28 29
29 27 35 38 38 37 36 37 38 38 26 31 32 26 31 31 28 24 23 25 26 25 23 24 22 24 24 25 25 24 22 20 19 18 18 18 19 20 20 19 18 19 19 20 20 19 18 18 18 20 19 19 19 19 19 20 19 19 19 19 18 18 19 18 20 19 18 19 20 20 21 22 22 22 22 22 23 23 24 24 24 25 27 28 28 30
26 27 32 34 32 37 38 38 38 38 38 32 27 31 35 31 30 23 17 19 17 16 23 23 20 20 20 18 23 21 20 18 18 18 18 19 19 18 19 19 19 19 19 19 19 19 19 19 18 19 20 19 19 19 19 20 20 21 21 19 19 19 20 19 19 19 18 18 19 20 20 21 22 22 22 22 22 22 22 22 22 23 25 26 28 29
32 22 26 33 34 36 37 37 32 36 39 35 33 35 28 19 18 20 18 11 11 11 21 21 21 20 22 20 20 20 18 17 17 17 17 17 17 18 18 19 19 20 21 21 20 20 20 18 18 18 18 18 20 20 20 21 21 21 20 20 20 19 20 20 20 20 18 18 20 21 19 20 21 22 22 23 22 21 21 20 21 21 23 24 26 26
33 22 24 30 33 33 32 33 28 29 35 36 37 31 31 26 25 19 21 21 18 11 18 21 22 21 24 20 20 20 18 17 17 17 16 16 17 17 18 19 19 20 20 20 20 20 19 16 16 17 18 19 20 21 22 22 22 20 21 20 20 20 20 19 19 20 18 19 19 19 18 19 21 22 22 22 21 22 21 21 21 21 21 22 23 24
27 26 21 26 31 32 26 30 29 32 30 29 28 25 24 22 29 26 24 21 16 14 17 21 19 22 21 20 20 19 18 18 17 17 18 18 18 18 19 20 20 20 21 20 19 17 15 13 13 16 18 21 21 22 21 22 22 22 22 21 20 20 19 20 19 20 19 19 19 18 18 18 19 20 21 21 21 21 21 20 20 20 21 23 22 23
27 27 23 25 27 28 29 30 32 33 33 28 26 27 28 24 21 13 14 22 19 15 14 17 19 18 19 19 19 18 18 18 19 18 18 18 18 20 21 20 20 21 19 18 16 13 14 13 13 15 16 20 20 20 19 20 21 22 21 22 21 21 20 20 20 20 19 18 18 17 18 18 18 19 20 19 20 22 20 19 19 19 21 21 22 23
30 27 27 26 27 28 29 30 32 32 32 33 29 27 29 25 22 17 11 16 16 18 21 17 17 19 19 18 17 17 17 18 18 19 18 18 18 19 20 20 20 19 18 16 14 13 11 12 12 15 15 17 18 18 18 18 19 21 21 22 21 21 20 20 20 20 19 18 17 17 17 18 18 18 18 19 20 20 18 17 17 19 19 20 20 22
34 26 24 26 28 28 29 29 29 26 29 29 27 28 30 27 29 24 23 22 18 16 15 13 12 18 20 18 16 16 17 16 16 17 17 17 18 19 19 20 20 19 17 16 13 12 10 13 12 15 15 17 18 17 16 17 17 20 21 23 21 21 20 20 20 20 19 18 17 17 16 16 17 16 17 18 20 18 16 16 17 18 19 19 19 20
21 22 22 19 18 19 21 23 25 25 26 21 22 26 28 30 30 28 26 23 18 16 16 12 10 15 19 20 18 16 16 15 15 16 18 18 19 19 19 20 20 19 17 11 9 8 9 11 12 14 15 16 17 16 16 17 17 18 20 21 21 21 21 21 20 19 18 16 16 16 16 16 16 16 17 19 19 16 15 15 15 16 17 17 18 19
24 22 20 16 12 10 11 14 18 19 21 24 24 25 27 26 27 22 17 18 15 18 19 16 15 18 17 18 16 15 14 12 13 15 18 19 19 18 21 21 19 18 15 9 9 9 9 12 13 13 13 15 16 15 16 16 17 19 20 19 20 19 20 20 19 18 16 16 16 16 16 16 16 16 17 18 17 15 14 14 15 15 15 16 17 17
20 19 21 19 18 16 16 19 21 25 23 19 23 23 23 24 26 27 22 19 20 21 18 21 20 17 17 16 15 14 13 11 10 11 14 18 20 20 20 21 18 14 12 5 9 11 11 12 11 12 13 14 14 13 13 15 17 18 19 19 19 20 20 19 18 16 15 15 15 16 16 16 16 16 17 16 15 14 14 14 13 14 14 15 16 16
20 19 19 19 19 19 21 17 21 23 21 22 23 22 22 22 22 21 19 18 21 18 17 19 19 16 17 16 14 12 12 10 9 8 9 14 20 21 20 20 16 10 7 7 8 9 10 11 12 12 12 12 13 13 13 15 17 18 18 18 19 19 18 19 16 15 15 15 15 15 15 15 15 16 16 15 14 14 13 13 12 13 13 14 14 15
19 16 17 16 16 19 19 19 20 19 19 20 21 21 20 21 21 17 20 22 22 16 16 22 22 20 18 16 14 12 11 9 7 6 9 13 19 20 18 15 11 8 6 7 9 10 10 11 12 12 12 13 12 12 13 15 17 18 18 18 19 18 17 17 15 14 14 14 14 14 15 15 15 15 14 14 13 13 12 11 11 12 12 13 13 15
19 18 18 17 15 17 18 18 20 17 16 17 18 19 20 21 21 21 21 21 21 20 22 22 21 20 19 17 14 12 12 10 8 9 12 16 19 19 16 12 9 6 6 7 9 9 11 11 11 11 12 12 12 12 15 17 18 18 18 18 18 17 16 15 13 13 13 13 13 14 14 14 14 13 13 13 12 11 10 10 10 11 11 12 13 13
19 18 21 17 12 12 15 18 18 18 16 13 14 16 17 18 19 19 19 20 20 18 21 21 19 17 16 14 13 12 12 11 8 7 8 15 20 18 14 10 7 6 6 8 9 9 10 11 11 11 12 12 13 15 17 18 18 18 17 17 16 15 15 13 13 13 13 13 13 14 13 13 13 12 12 11 10 10 10 10 10 10 11 11 12 12
21 15 15 12 9 10 16 13 14 14 11 8 8 11 13 14 12 16 15 17 18 16 18 19 18 16 13 13 12 12 10 9 8 8 10 15 18 16 13 8 5 6 7 8 9 10 10 11 11 12 13 13 14 16 17 17 17 16 16 16 15 14 13 12 12 12 12 13 13 13 13 12 11 11 11 10 9 9 9 9 9 10 10 10 11 12
17 15 12 11 8 7 14 15 8 6 4 -1 5 13 18 13 14 19 19 20 22 19 17 13 14 13 12 14 11 10 10 8 6 6 10 16 16 13 11 4 5 7 8 9 11 13 11 11 12 12 13 14 16 17 16 16 16 15 16 14 14 13 11 11 12 12 12 13 13 12 12 11 10 10 9 9 8 8 8 8 9 9 9 10 11 12
13 10 10 7 -0 7 7 9 9 -2 -15 -7 18 20 19 16 13 13 12 18 21 19 15 14 14 14 13 12 11 9 9 9 7 8 10 13 15 13 4 5 6 7 8 9 9 10 11 13 13 14 15 15 15 15 15 16 15 15 14 13 12 11 11 11 11 12 12 13 12 11 10 10 9 9 8 8 7 7 7 8 8 8 9 10 10 10
8 8 10 4 6 5 2 -0 0 -13 -1 18 20 20 19 16 18 18 17 18 19 16 15 13 13 13 13 13 13 11 10 7 5 6 6 12 14 8 6 6 6 10 8 9 10 11 12 13 14 14 15 14 15 15 14 13 14 13 13 12 11 11 11 11 11 12 12 12 11 10 9 9 9 8 7 6 6 6 7 7 7 8 8 9 10 10
14 12 10 5 10 8 0 1 -15 -7 5 15 19 17 19 18 16 16 14 15 17 17 16 12 12 12 12 12 10 10 10 8 8 10 10 13 9 8 8 7 8 8 9 10 11 12 12 13 14 14 13 16 14 14 13 13 13 12 11 11 11 10 10 10 11 11 11 11 9 8 7 7 7 6 5 5 5 6 6 7 7 7 7 9 10 10
20 12 10 9 6 0 3 4 4 7 6 9 9 14 15 14 13 12 9 12 14 16 16 12 11 10 11 10 9 9 8 8 8 8 9 10 12 12 10 8 9 10 11 12 12 13 13 14 15 13 14 12 13 12 13 13 13 12 11 10 10 10 9 10 10 10 10 9 7 7 6 7 6 5 4 4 5 5 5 6 6 6 8 9 9 9
20 14 16 7 4 7 5 5 3 1 -2 4 13 16 17 18 17 17 11 10 15 14 16 10 9 9 10 9 9 9 11 8 7 9 9 10 13 14 12 13 11 11 11 12 12 12 13 14 12 11 12 12 12 12 13 12 12 10 9 9 8 8 8 8 8 9 8 6 6 5 5 6 5 4 4 3 4 4 5 5 6 6 8 8 8 8
18 20 16 13 12 7 5 -1 -3 -7 -2 12 14 15 17 15 18 19 8 6 13 14 15 10 9 9 9 8 8 10 8 5 4 11 9 9 9 10 10 10 9 10 11 11 11 12 13 13 12 12 13 11 10 11 11 11 10 9 8 8 7 6 6 6 7 7 5 4 4 4 5 4 4 4 3 3 3 4 4 5 6 8 8 8 8 8
14 14 14 11 7 8 4 2 2 -1 1 12 13 14 12 14 18 13 -4 1 13 13 13 10 9 9 9 9 9 8 6 5 3 10 10 9 10 9 9 10 10 10 11 11 12 13 12 12 11 11 10 10 10 11 11 10 9 8 7 6 5 4 4 4 5 6 5 4 3 3 4 3 4 3 3 3 3 4 4 5 6 6 7 7 8 9
10 9 12 8 9 11 11 6 5 7 16 16 13 12 13 21 17 -5 -5 9 13 13 12 10 9 10 10 9 9 6 7 7 8 8 9 9 9 9 10 10 10 11 11 11 13 18 12 11 11 10 9 10 11 11 10 9 7 7 6 6 4 3 3 3 4 5 5 4 3 3 3 3 3 2 2 3 3 4 5 5 5 6 7 7 9 9
4 7 10 6 7 8 7 6 8 9 13 14 13 14 16 12 -0 2 11 15 13 13 12 11 10 10 10 11 9 8 8 9 13 10 9 9 9 10 10 10 10 11 12 14 15 13 11 10 9 9 8 9 10 10 9 7 7 7 5 4 3 3 4 3 3 4 4 4 3 4 4 3 3 3 3 4 5 4 4 5 6 6 7 7 8 8
8 3 5 5 6 6 4 4 1 -3 5 14 14 14 15 9 12 12 13 13 13 13 12 12 11 10 10 9 11 11 8 6 8 8 10 10 11 11 11 11 11 11 10 11 10 10 10 8 7 7 7 8 8 9 8 7 7 6 6 4 4 4 3 3 3 3 4 5 5 5 4 4 4 3 3 4 4 4 5 5 6 7 7 7 7 7
8 3 4 8 11 6 4 -0 1 8 13 16 13 13 15 17 11 11 13 13 13 13 13 13 11 11 11 10 9 10 11 9 10 10 11 11 11 11 11 11 11 11 11 11 9 7 10 8 8 7 7 7 8 8 8 7 6 6 6 5 5 3 3 2 2 4 5 6 5 4 4 4 4 3 3 3 4 5 5 5 5 6 6 6 6 6
10 6 7 6 9 7 7 9 9 12 16 16 15 14 13 14 12 12 11 12 10 9 11 11 11 11 11 10 9 9 9 10 10 11 11 11 11 10 9 9 9 9 9 8 7 9 9 7 7 6 7 7 7 8 7 7 6 5 5 5 4 3 2 2 4 5 5 5 4 4 4 3 3 2 2 3 4 3 3 3 4 4 5 5 4 4
6 8 7 7 9 8 9 9 13 10 13 16 16 13 12 12 13 11 9 10 11 11 11 11 11 11 11 11 10 9 9 10 10 11 11 11 10 9 9 8 7 7 8 7 6 7 7 6 7 6 7 7 6 7 7 6 5 4 5 4 3 2 2 3 3 3 3 3 3 3 3 1 0 0 1 1 2 2 3 3 3 4 4 4 4 4
8 7 3 6 8 1 2 3 6 8 12 14 15 14 12 13 12 10 11 11 11 12 11 12 12 10 11 12 13 11 10 10 10 10 10 9 8 7 7 7 6 7 7 6 6 8 6 5 6 6 6 6 6 6 5 3 4 5 4 4 3 2 2 2 2 2 1 0 1 1 1 -0 -0 0 1 1 1 2 2 2 2 3 3 3 3 3
7 8 4 6 4 4 5 4 5 7 10 12 17 15 14 14 12 12 13 11 12 11 12 12 11 10 10 9 11 11 11 12 11 11 11 11 10 10 10 9 8 8 7 7 6 6 5 5 5 5 5 5 5 5 4 4 3 4 3 1 1 0 -0 1 1 0 -1 -1 -0 0 0 -0 1 0 -0 -0 -0 -0 -0 1 2 1 1 1 2 2
8 8 6 7 6 9 8 7 7 6 6 9 9 13 16 17 16 13 12 12 11 11 10 10 11 10 9 9 10 11 11 11 11 11 10 9 7 6 6 5 6 7 6 6 6 6 6 5 3 3 3 5 5 4 3 2 3 2 2 1 -1 -1 -2 -1 -1 -1 -3 -2 -1 -1 -1 -1 -1 -1 -2 -2 -2 -1 -0 -1 -0 0 1 3 4 4
8 6 5 5 6 7 5 4 8 6 6 10 11 10 13 16 16 14 13 12 12 12 11 11 10 11 11 11 11 11 11 11 11 11 10 9 7 6 6 6 7 7 6 5 5 3 3 3 3 3 4 5 4 2 1 2 2 1 1 -1 -2 -2 -3 -5 -4 -5 -4 -3 -3 -3 -3 -3 -3 -3 -2 -2 -2 -2 -2 1 3 5 2 3 6 7
7 6 5 7 6 4 5 6 9 10 6 7 11 12 11 13 14 15 14 14 13 13 12 12 11 11 12 12 12 12 12 12 11 10 9 8 7 7 7 7 7 6 6 5 3 2 2 3 2 2 1 3 2 2 2 2 1 0 -0 -1 -1 -3 -5 -7 -5 -5 -4 -4 -4 -3 -3 -4 -4 -4 -4 -3 -3 -3 -3 -3 -2 5 8 9 4 5